Erie, PA

1:16 PM EDT on September 26, 2017 (GMT -0400)
Erie International

Weather History for KERI - May, 2013

Change the Weather History Date:

Monday, May 27, 2013

  Actual Average Record
Temperature  
Mean Temperature 53 °F 61 °F  
Max Temperature 65 °F 70 °F 87 °F (1955)
Min Temperature 41 °F 52 °F 35 °F (1969)
Degree Days  
Heating Degree Days 12 6  
Month to date heating degree days 185 247  
Since 1 July heating degree days 5812 6066  
Cooling Degree Days 0 2  
Month to date cooling degree days 48 25  
Year to date cooling degree days 48 32  
Growing Degree Days 2 (Base 50)    
Moisture  
Dew Point 40 °F    
Average Humidity 59    
Maximum Humidity 82    
Minimum Humidity 36    
Precipitation  
Precipitation 0.03 in 0.11 in 0.77 in (1946)
Month to date precipitation 2.48 2.98  
Year to date precipitation 14.05 14.60  
Snow  
Snow 0.00 in 0.00 in - ()
Month to date snowfall 0.0 0.0  
Since 1 July snowfall 105.5 100.9  
Snow Depth 0.00 in    
Sea Level Pressure  
Sea Level Pressure 30.22 in    
Wind  
Wind Speed 4 mph (NE)    
Max Wind Speed 12 mph    
Max Gust Speed 16 mph    
Visibility 10 miles    
Events Rain    
T = Trace of Precipitation, MM = Missing Value Source: NWS Daily Summary

Daily Weather History Graph

Daily Weather History Graph

Search for Another Location

Airport or City:

Trip Planner

Search our weather history database for the weather conditions in past years. The results will help you decide how hot, cold, wet, or windy it might be!

Date:

Astronomy

May. 27, 2013 Rise Set
Actual Time 5:50 AM EDT 8:46 PM EDT
Civil Twilight 5:16 AM EDT 9:19 PM EDT
Nautical Twilight 4:34 AM EDT 10:01 PM EDT
Astronomical Twilight 3:45 AM EDT 10:51 PM EDT
Moon 11:22 PM EDT (5/27) 8:26 AM EDT (5/27)
Length of Visible Light 16h 02m
Length of Day
14h 56m
Waning Gibbous, 91% of the Moon is Illuminated
May 27
Waning Gibbous
May 31
Last Quarter
Jun 8
New
Jun 16
First Quarter
Jun 23
Full

Hourly Weather History & Observations

Time (EDT) Temp. Windchill Dew Point Humidity Pressure Visibility Wind Dir Wind Speed Gust Speed Precip Events Conditions
12:51 AM 45.0 °F - 37.9 °F 76% 30.27 in 10.0 mi Calm Calm - N/A   Clear
1:51 AM 44.1 °F 42.5 °F 37.9 °F 79% 30.27 in 10.0 mi South 3.5 mph - N/A   Clear
2:51 AM 45.0 °F 43.5 °F 37.9 °F 76% 30.28 in 10.0 mi South 3.5 mph - N/A   Clear
3:51 AM 43.0 °F 41.3 °F 37.0 °F 80% 30.28 in 10.0 mi South 3.5 mph - N/A   Clear
4:51 AM 42.1 °F 40.2 °F 37.0 °F 82% 30.27 in 10.0 mi SSW 3.5 mph - N/A   Clear
5:51 AM 41.0 °F 38.0 °F 36.0 °F 82% 30.27 in 10.0 mi SSE 4.6 mph - N/A   Clear
6:51 AM 44.1 °F 42.5 °F 37.0 °F 76% 30.28 in 10.0 mi SSW 3.5 mph - N/A   Clear
7:51 AM 51.1 °F - 39.0 °F 63% 30.28 in 10.0 mi Calm Calm - N/A   Clear
8:51 AM 57.0 °F - 39.0 °F 51% 30.29 in 10.0 mi Calm Calm - N/A   Clear
9:51 AM 57.0 °F - 43.0 °F 59% 30.28 in 10.0 mi North 3.5 mph - N/A   Clear
10:51 AM 57.9 °F - 46.0 °F 65% 30.27 in 10.0 mi NNW 5.8 mph - N/A   Clear
11:51 AM 57.0 °F - 46.0 °F 67% 30.27 in 10.0 mi North 8.1 mph - N/A   Clear
12:51 PM 57.0 °F - 44.1 °F 62% 30.25 in 10.0 mi North 5.8 mph - N/A   Clear
1:51 PM 60.1 °F - 46.9 °F 62% 30.23 in 10.0 mi North 5.8 mph - N/A   Clear
2:51 PM 62.1 °F - 46.9 °F 58% 30.21 in 10.0 mi NNE 5.8 mph - N/A   Clear
3:51 PM 64.0 °F - 39.0 °F 40% 30.19 in 10.0 mi North 9.2 mph - N/A   Clear
4:51 PM 63.0 °F - 36.0 °F 37% 30.17 in 10.0 mi NNE 10.4 mph - N/A   Clear
5:51 PM 62.1 °F - 35.1 °F 37% 30.18 in 10.0 mi North 6.9 mph - N/A   Clear
6:51 PM 61.0 °F - 39.9 °F 46% 30.17 in 10.0 mi Calm Calm - N/A   Clear
7:51 PM 61.0 °F - 36.0 °F 39% 30.14 in 10.0 mi Calm Calm - N/A   Clear
8:51 PM 60.1 °F - 41.0 °F 49% 30.13 in 10.0 mi Calm Calm - N/A   Overcast
9:51 PM 57.9 °F - 43.0 °F 58% 30.13 in 10.0 mi Calm Calm - N/A   Overcast
10:51 PM 57.9 °F - 43.0 °F 58% 30.12 in 10.0 mi SE 5.8 mph - 0.00 in Rain Light Rain
11:51 PM 55.0 °F - 48.0 °F 77% 30.13 in 10.0 mi SSE 3.5 mph - 0.01 in Rain Light Rain